Regional Weather Roundup
Issued by NWS Green Bay, WI

Home | Current Version | Previous Version | Graphics & Text | Print | Product List | Glossary Off
Versions: 1 2 3 4 5 6 7 8 9 10 11 12 13 14 15 16 17 18 19 20 21 22 23 24 25 26 27 28 29 30 31 32 33 34 35 36 37 38 39 40 41 42 43 44 45 46 47 48 49 50

000
ASUS43 KGRB 192300
RWRGRB

NORTH-CENTRAL AND NORTHEAST WISCONSIN REGIONAL WEATHER ROUNDUP
NATIONAL WEATHER SERVICE GREEN BAY WI
500 PM CST SUN FEB 19 2017

WIZ005-009-010>012-018-019-200000-
NORTH CENTRAL WISCONSIN

CITY           SKY/WX    TMP DP  RH WIND       PRES   REMARKS
IRONWOOD       PTCLDY    55  27  34 E5        29.99S
MANITOWISH WTR NOT AVBL
ARBOR VITAE    NOT AVBL
EAGLE RIVER    NOT AVBL
LAND O LAKES   CLEAR     54  25  32 SE3       30.03R
RHINELANDER    CLOUDY    53  26  35 CALM      30.02R
PHILLIPS       PTCLDY    52  28  39 SE6       29.98F
ANTIGO         NOT AVBL
TOMAHAWK       NOT AVBL
MERRILL        NOT AVBL
$$

WIZ013-073-200000-
NORTHEAST WISCONSIN

CITY           SKY/WX    TMP DP  RH WIND       PRES   REMARKS
IRON MOUNTAIN  PTCLDY    48  28  46 E5        30.04R
MARINETTE      PTCLDY    41  31  67 SE3       30.09R
$$

WIZ017-030-035>037-045-200000-
CENTRAL WISCONSIN

CITY           SKY/WX    TMP DP  RH WIND       PRES   REMARKS
MEDFORD        NOT AVBL
WAUSAU         CLOUDY    54  29  38 SE6       30.00R
MOSINEE        PTCLDY    54  30  40 SE6       30.02R
MARSHFIELD     PTCLDY    54  29  38 SE5       29.99R
WISC RAPIDS    CLEAR     56  33  42 SE6       30.01S
STEVENS POINT  NOT AVBL
WAUPACA        CLEAR     55  35  48 CALM      30.03S
SHAWANO        CLEAR     45  34  65 CALM      30.05S
CLINTONVILLE   CLEAR     52  32  46 SE6       30.04R
WAUTOMA        CLEAR     57  35  43 SE5       30.02S
$$

WIZ038-039-048-051-200000-
FOX VALLEY

CITY           SKY/WX    TMP DP  RH WIND       PRES   REMARKS
NWS GREEN BAY  CLEAR     56  38  50 SE3       30.05S
APPLETON       PTCLDY    54  32  43 VRB6      30.03R
OSHKOSH        CLEAR     49  35  58 CALM      30.04S
FOND DU LAC    CLEAR     58  37  45 S6        30.04R
$$

WIZ022-050-052-200000-
EAST CENTRAL WISCONSIN

CITY           SKY/WX    TMP DP  RH WIND       PRES   REMARKS
EPHRAIM        NOT AVBL
WASHINGTON ISL NOT AVBL
STURGEON BAY   CLOUDY    43  31  62 E8        30.09R
MANITOWOC      NOT AVBL
SHEBOYGAN      CLEAR     46  31  55 E7        30.07R
$$

LMZ563-521-522-541>543-200000-
LAKESHORE

STATION/POSITION TIME  TEMP    WIND        PRES    VSBY  WAVE
                       AIR SEA DIR/SP/G                  HT/PER
                 (UTC) (F)     (DEG/KT/KT) (MB)    (MI)  (FT/S)
SHEBOYGAN LKSHOR 2200   41     110/  4/  5 1018.0S
KEWAUNEE LKSHORE 2230   42      CALM  /  3 1018.2R
NORTHPORT PIER   2240   39     140/  7/  8 1018.6S
SISTER BAY LKSHO 2205   48     130/  8/ 11   N/A
CHAMBERS ISLAND  2240   44     100/  4/  8 1018.3R
MENOMINEE LKSHOR 2230   36      CALM  /  2 1017.6R
$$




USA.gov is the U.S. government's official web portal to all federal, state and local government web resources and services.